AirNav   Everest Fuels
 
 1163 users online  

SC90 Do-Little Field Airport
St Matthews, South Carolina, USA

GOING TO ST MATTHEWS?


FAA INFORMATION EFFECTIVE 15 JULY 2021

Location

FAA Identifier: SC90
Lat/Long: 33-40-35.7300N 080-56-53.3300W
33-40.595500N 080-56.888833W
33.6765917,-80.9481472
(estimated)
Elevation: 369 ft. / 112 m (estimated)
Variation: 05W (1990)
From city: 9 miles W of ST. MATTHEWS, SC
Time zone: UTC -4 (UTC -5 during Standard Time)
Zip code: 29135

Airport Operations

Airport use: Private use. Permission required prior to landing
Activation date: 06/1993
Control tower: no
ARTCC: JACKSONVILLE CENTER
FSS: ANDERSON FLIGHT SERVICE STATION
Attendance: UNATNDD
Wind indicator: yes
Segmented circle: no

Airport Communications

WX ASOS at OGB (14 nm S): 118.525 (803-536-3901)
WX ASOS at CUB (18 nm N): 118.675 (803-929-0665)
WX ASOS at CAE (18 nm NW): 120.15 (803-822-4168)

Nearby radio navigation aids

VOR radial/distance  VOR name  Freq  Var
CAEr156/12.1COLUMBIA VORTAC114.7002W
MMTr214/16.5MC ENTIRE VORTAC113.2008W
VANr302/27.7VANCE VORTAC110.4006W

 
NDB name  Hdg/Dist  Freq  Var  ID
SUMTER244/34.925207WSMS ... -- ...
AIKEN094/36.434706WAIK .- .. -.-
MANNING284/37.438106WMNI -- -. ..

Airport Services

Runway Information

Runway 14/32

Dimensions: 3200 x 100 ft. / 975 x 30 m
Surface: turf
RUNWAY 14  RUNWAY 32
Traffic pattern: leftright

Airport Ownership and Management from official FAA records

Ownership: Privately-owned
Owner: DO-LITTLE FIELD INC
160 DO LITTLE LANE
ST MATTHEWS, SC 29135
Phone 803-874-4281
Manager: BILL MITCHELL
35 DOOLITTLE LN
ST MATTHEWS, SC 29135
Phone 803-874-1310

Airport Operational Statistics

Aircraft based on the field: 9
Single engine airplanes: 9
    

Additional Remarks

FOR CD CTC COLUMBIA APCH AT 803-822-5242 OR 803-822-5040.

Instrument Procedures

There are no published instrument procedures at SC90.

Some nearby airports with instrument procedures:

KXNO - North Air Force Auxiliary Field (8 nm SW)
KOGB - Orangeburg Municipal Airport (14 nm S)
KMMT - Mc Entire Joint National Guard Base (16 nm NE)
6J0 - Lexington County Airport (16 nm NW)
KCUB - Jim Hamilton L B Owens Airport (18 nm N)
KCAE - Columbia Metro Airport (18 nm NW)
 
Loc | Ops | Rwys | IFR | FBO | Links
Com | Nav | Svcs | Stats | Notes
Area around SC90 (Do-Little Field Airport)
 
Road maps at: MapQuest Bing Google
 
Aerial photo
WARNING: Photo may not be current or correct
Aerial photo of SC90 (Do-Little Field Airport)
Photo by Eddie Price
Photo taken 10-Nov-2012
looking west.

Do you have a better or more recent aerial photo of Do-Little Field Airport that you would like to share? If so, please send us your photo.

 
Sectional chart

 
Airport distance calculator
Flying to Do-Little Field Airport? Find the distance to fly.

From to SC90

Sunrise and sunset
Times for 02-Aug-2021
 Local
(UTC-4)
 Zulu
(UTC)
Morning civil twilight06:1010:10
Sunrise06:3810:38
Sunset20:2300:23
Evening civil twilight20:5000:50

Current date and time
Zulu (UTC)  02-Aug-2021 23:02:50
Local (UTC-4)  02-Aug-2021 19:02:50
 
METAR
KXNO 
8nm SW 
022256Z AUTO 06004KT 10SM FEW060 FEW070 31/27 A2995 RMK AO2 SLP142 T03100267 $
KOGB 
14nm S 
022253Z AUTO 06005KT 10SM CLR 31/20 A2995 RMK AO2 SLP138 T03060200
KMMT 
17nm NE 
022256Z 07004KT 10SM FEW030 SCT250 30/20 A2993 RMK AO2A SLP136 T03030196 $
KCAE 
18nm NW 
022256Z 12007KT 6SM HZ FEW065 FEW080 BKN250 31/17 A2993 RMK AO2 SLP133 T03060172
KCUB 
18nm N 
022253Z AUTO VRB03KT 10SM FEW070 31/17 A2994 RMK AO2 SLP137 T03110167
TAF
KOGB 
14nm S 
022113Z 0221/0318 04007KT P6SM SCT050 BKN250 FM030300 VRB03KT P6SM VCSH BKN040 FM030900 10004KT P6SM -SHRA SCT020 BKN035
KMMT 
17nm NE 
021500Z 0215/0321 04009KT 9999 FEW150 QNH2994INS BECMG 0305/0306 09009KT 8000 -SHRA SCT010 BKN045 QNH2997INS BECMG 0309/0310 07009KT 8000 -SHRA BKN020 OVC080 QNH2997INS BECMG 0315/0316 09015G20KT 6000 -SHRA BKN015 OVC050 QNH2992INS TEMPO 0316/0321 33015G25KT 4800 -TSRA BKN006CB OVC012 TX31/0219Z TN24/0303Z
KCAE 
18nm NW 
022113Z 0221/0318 06006KT P6SM SCT050 BKN250 FM030300 VRB04KT P6SM VCSH BKN040 FM030900 09004KT P6SM -SHRA SCT020 BKN035
KCUB 
18nm N 
022113Z 0221/0318 10005KT P6SM SCT050 BKN250 FM030300 VRB03KT P6SM VCSH BKN040 FM030900 09004KT P6SM -SHRA SCT020 BKN035
NOTAMs
Click for the latest NOTAMs
NOTAMs are issued by the DoD/FAA and will open in a separate window not controlled by AirNav.

 

 
 

Would you like to see your business listed on this page?

 If your business provides an interesting product or service to pilots, flight crews, aircraft, or users of the Do-Little Field Airport, you should consider listing it here.  To start the listing process, click on the button below
 
Add a business
 

Other Pages about Do-Little Field Airport

Update a link
 
Copyright © AirNav, LLC. All rights reserved. Privacy Policy  Contact